Regional Weather Roundup
Issued by NWS

Home | Current Version | Previous Version | Text Only | Print | Product List | Glossary On
Versions: 1 2 3 4 5 6 7 8 9 10 11 12 13 14 15 16 17 18 19 20 21 22 23 24 25 26 27 28 29 30 31 32 33 34 35 36 37 38 39 40 41 42 43 44 45 46 47 48 49 50
000
ASCA44 KEWX 250620
RWRMX

LATIN AMERICA AND CARIBBEAN REGIONAL WEATHER ROUNDUP
NATIONAL WEATHER SERVICE AUSTIN/SAN ANTONIO TX
100 AM CDT WED APR 25 2018

NOTE: "FAIR" INDICATED FEW OR NO CLOUDS BELOW 12,000 FEET WITH NO
SIGNIFICANT WEATHER AND/OR OBSTRUCTIONS TO VISIBILITY.

BAJA CALIFORNIA

CITY           SKY/WX    TMP DP  RH WIND       PRES   REMARKS
LA PAZ         PTCLDY    72  55  56 S12       29.98R
MEXICALI       PTCLDY    77  45  31 CALM      29.87R
S.J. DEL CABO    N/A    N/A N/A N/A MISG        N/A
TIJUANA        PTCLDY    55  54  94 NW3       30.07S

NORTHWESTERN MEXICO

CITY           SKY/WX    TMP DP  RH WIND       PRES   REMARKS
HERMOSILLO     PTCLDY    79  32  18 CALM      29.95S

NORTHEASTERN MEXICO

CITY           SKY/WX    TMP DP  RH WIND       PRES   REMARKS
MONCLOVA       MOCLDY    79  50  36 SE6       29.98S
MONTERREY      CLOUDY    73  66  78 E12       30.00F
REYNOSA          N/A    N/A N/A N/A MISG        N/A
SALTILLO       PTCLDY    61  52  72 CALM      30.22S
CD. VICTORIA     N/A    N/A N/A N/A MISG        N/A

WESTERN MEXICO

CITY           SKY/WX    TMP DP  RH WIND       PRES   REMARKS
AGUASCALIENTES   N/A    N/A N/A N/A MISG        N/A
COLIMA           N/A    N/A N/A N/A MISG        N/A
DEL BAJIO      MOCLDY    68  46  45 SE5       30.31R
GUADALAJARA    PTCLDY    70  41  35 SW5       30.21R
MAZATLAN       MOCLDY    64  63  94 CALM      29.94S
P. VALLARTA    CLEAR     72  72 100 CALM      29.95R
URUAPAN          N/A    N/A N/A N/A MISG        N/A
ZACATECAS        N/A    N/A N/A N/A MISG        N/A

CENTRAL MEXICO

CITY           SKY/WX    TMP DP  RH WIND       PRES   REMARKS
CUERNAVACA       N/A    N/A N/A N/A MISG        N/A
MEXICO CITY    MOCLDY    59  52  77 W5        30.42F
MORELIA        CLEAR     64  52  63 SW3       30.25S
POZA RICA        N/A    N/A N/A N/A MISG        N/A
S. LUIS POTOSI PTCLDY    63  52  67 SE3       30.30S
TOLUCA         PTCLDY    54  48  82 W3        30.45F

SOUTHERN MEXICO

CITY           SKY/WX    TMP DP  RH WIND       PRES   REMARKS
ACAPULCO       PTCLDY    81  73  78 W5        29.93S
B. DE HUATULCO   N/A    N/A N/A N/A MISG        N/A
P. ESCONDIDO     N/A    N/A N/A N/A MISG        N/A
VERACRUZ         N/A    N/A N/A N/A MISG        N/A

YUCATAN PENINSULA

CITY           SKY/WX    TMP DP  RH WIND       PRES   REMARKS
CAMPECHE       PTCLDY    79  72  78 E6        29.95
CANCUN         PTCLDY    75  75 100 N3        29.98F
CHETUMAL         N/A    N/A N/A N/A MISG        N/A
CD. DEL CARMEN   N/A    N/A N/A N/A MISG        N/A
COZUMEL        MOCLDY    77  75  94 CALM      29.95F
MERIDA         CLEAR     73  72  94 W5        29.99F
MINATITLAN       N/A    N/A N/A N/A MISG        N/A
TAPACHULA      PTCLDY    79  73  83 CALM      29.91F

CENTRAL AMERICA

CITY           SKY/WX    TMP DP  RH WIND       PRES   REMARKS
MANAGUA        PTCLDY    82  72  69 E9        29.86F

CARIBBEAN

CITY           SKY/WX    TMP DP  RH WIND       PRES   REMARKS
CURACAO          N/A     79  73  83 SE10      29.92F
KINGSTON       PTCLDY    81  73  78 E3        29.94F
NASSAU         MOCLDY    77  70  78 CALM      29.98
SAN JUAN       PTCLDY    77  72  83 SE5       30.02F
ST. THOMAS     CLEAR     77  72  83 E6        30.00F

$$





USA.gov is the U.S. government's official web portal to all federal, state and local government web resources and services.